カタログに戻る

COSMOS 1911

運用中軍事PO
NORAD 18790·PAYLOAD·🇷🇺 Russia

打ち上げ Jan 15, 1988 から Plesetsk Cosmodrome

Loading…

次のパス (今後24時間)

TLE

最新Source: Space-Track

元期: Sep 14, 2026, 05:44 UTC

1 18790U 88002C   26257.23907862  .00000019  00000-0  45342-4 0  9994
2 18790  82.6119 191.7259 0006336 297.5244 239.8542 12.64386242784201

AllMySatでCOSMOS 1911をリアルタイム追跡

Download on the App Store